FW6349 Weather Reports


Display with metric or nautical units.
time (UTC)temp
F
wind
direction
speed
MPH
gust
MPH
rain 1hr
in
rain 24hr
in
rain mn
in
humidity
%
barometer
mb
20240223190016 32 23 5.0 12.0 0.00 0.00 0.00 77 1011.2
20240223185016 31 23 6.0 12.0 0.00 0.00 0.00 77 1011.1
20240223184016 32 23 9.0 17.0 0.00 0.00 0.00 75 1010.9
20240223183016 32 0 5.0 12.0 0.00 0.00 0.00 74 1010.8
20240223182016 32 0 8.0 13.0 0.00 0.00 0.00 73 1010.6
20240223181016 33 0 7.0 11.0 0.00 0.00 0.00 73 1010.6
20240223180018 33 0 8.0 14.0 0.00 0.00 0.00 71 1010.6
20240223175016 33 0 7.0 11.0 0.00 0.00 0.00 71 1010.5
20240223174016 34 23 10.0 16.0 0.00 0.00 0.00 70 1010.3
20240223173016 34 0 6.0 16.0 0.00 0.00 0.00 72 1010.1
20240223172016 34 23 7.0 13.0 0.00 0.00 0.00 74 1010.0
20240223171017 34 23 9.0 16.0 0.00 0.00 0.00 75 1009.9
20240223170016 34 23 8.0 14.0 0.00 0.00 0.00 76 1009.7
20240223165016 34 0 9.0 13.0 0.00 0.00 0.00 77 1009.6
20240223164016 34 0 9.0 14.0 0.00 0.00 0.00 77 1009.4
20240223163016 34 0 6.0 12.0 0.00 0.00 0.00 78 1009.4
20240223162016 34 0 8.0 15.0 0.00 0.00 0.00 77 1009.3
20240223161016 34 0 7.0 13.0 0.00 0.00 0.00 77 1009.2
20240223160016 34 0 7.0 14.0 0.00 0.00 0.00 77 1009.0
20240223155016 35 0 8.0 14.0 0.00 0.00 0.00 77 1008.8
20240223154016 34 0 7.0 14.0 0.00 0.00 0.00 78 1008.5
20240223153016 34 0 6.0 13.0 0.00 0.00 0.00 79 1008.5
20240223152016 34 0 7.0 14.0 0.00 0.00 0.00 80 1008.3
20240223151036 34 0 6.0 12.0 0.00 0.00 0.00 80 1008.2
20240223150016 33 0 6.0 10.0 0.00 0.00 0.00 81 1008.0
20240223145016 33 0 5.0 9.0 0.00 0.00 0.00 82 1007.9
20240223144016 33 0 5.0 11.0 0.00 0.00 0.00 82 1007.9
20240223143036 33 338 5.0 11.0 0.00 0.00 0.00 83 1007.7
20240223142036 33 338 4.0 7.0 0.00 0.00 0.00 84 1007.5
20240223141018 32 0 4.0 8.0 0.00 0.00 0.00 85 1007.4
20240223140018 32 0 5.0 9.0 0.00 0.00 0.00 86 1007.4
20240223135020 32 0 4.0 8.0 0.00 0.00 0.00 87 1007.5
20240223134018 32 338 4.0 10.0 0.00 0.00 0.00 88 1007.3
20240223133018 31 0 4.0 9.0 0.00 0.00 0.00 89 1007.3
20240223132018 31 338 4.0 8.0 0.00 0.00 0.00 90 1007.1
20240223131017 30 338 3.0 5.0 0.00 0.00 0.00 91 1006.9
20240223130017 30 0 3.0 4.0 0.00 0.00 0.00 91 1007.0
20240223125018 29 338 2.0 4.0 0.00 0.00 0.00 92 1006.6
20240223124017 29 0 3.0 5.0 0.00 0.00 0.00 92 1006.6
20240223123018 28 338 2.0 4.0 0.00 0.00 0.00 92 1006.5
20240223122018 28 338 2.0 4.0 0.00 0.00 0.00 92 1006.3
20240223121018 27 315 1.0 2.0 0.00 0.00 0.00 92 1006.3
20240223120017 26 315 1.0 2.0 0.00 0.00 0.00 91 1006.3
20240223115018 26 0.0 0.0 0.00 0.00 0.00 90 1006.1
20240223114038 26 0.0 0.0 0.00 0.00 0.00 90 1006.1
20240223113018 27 0.0 0.0 0.00 0.00 0.00 89 1006.2
20240223112017 27 0.0 1.0 0.00 0.00 0.00 89 1006.2
20240223111018 28 0.0 0.0 0.00 0.00 0.00 90 1006.3
20240223110018 28 0.0 0.0 0.00 0.00 0.00 90 1006.4
20240223105017 28 0.0 0.0 0.00 0.00 0.00 90 1006.3
20240223104038 28 0.0 0.0 0.00 0.00 0.00 90 1006.3
20240223103018 28 0.0 0.0 0.00 0.00 0.00 90 1006.2
20240223102018 28 0.0 2.0 0.00 0.00 0.00 90 1006.3
20240223101019 28 0.0 0.0 0.00 0.00 0.00 90 1006.4
20240223100017 28 0.0 1.0 0.00 0.00 0.00 90 1006.3
20240223095017 27 0.0 0.0 0.00 0.00 0.00 89 1006.1
20240223094041 27 0.0 1.0 0.00 0.00 0.00 88 1006.2
20240223093017 27 0.0 1.0 0.00 0.00 0.00 88 1006.5
20240223092017 28 0.0 1.0 0.00 0.00 0.00 88 1006.7
20240223091037 28 0.0 2.0 0.00 0.00 0.00 87 1006.8
20240223090037 28 0.0 0.0 0.00 0.00 0.00 86 1006.9
20240223085018 29 0.0 0.0 0.00 0.00 0.00 85 1006.9
20240223084017 29 0.0 1.0 0.00 0.00 0.00 85 1006.9
20240223083017 30 0.0 0.0 0.00 0.00 0.00 85 1007.1
20240223082017 30 0.0 0.0 0.00 0.00 0.00 85 1007.2
20240223081017 31 0.0 0.0 0.00 0.00 0.00 85 1007.4
20240223080039 31 315 1.0 3.0 0.00 0.00 0.00 85 1007.4
20240223075019 31 248 1.0 2.0 0.00 0.00 0.00 85 1007.4
20240223074017 32 0.0 1.0 0.00 0.00 0.00 84 1007.4
20240223073017 32 0.0 1.0 0.00 0.00 0.00 84 1007.4
20240223072017 32 248 1.0 2.0 0.00 0.00 0.00 84 1007.5
20240223071018 33 248 1.0 3.0 0.00 0.00 0.00 84 1007.7
20240223070017 33 248 1.0 3.0 0.00 0.00 0.00 84 1007.8
20240223065017 33 248 2.0 4.0 0.00 0.00 0.00 84 1007.8
20240223064017 33 248 1.0 3.0 0.00 0.00 0.00 84 1007.9
20240223063017 33 248 1.0 3.0 0.00 0.00 0.00 84 1007.9
20240223062017 33 248 1.0 5.0 0.00 0.00 0.00 83 1007.9
20240223061139 33 248 1.0 4.0 0.00 0.00 0.00 83 1007.9
20240223060018 34 248 1.0 3.0 0.00 0.00 0.00 83 1007.9
20240223055018 34 270 2.0 4.0 0.00 0.00 0.00 84 1008.0
20240223054018 34 270 2.0 4.0 0.00 0.00 0.00 83 1008.1
20240223053018 34 293 1.0 3.0 0.00 0.00 0.00 83 1008.0
20240223052018 34 248 1.0 4.0 0.00 0.00 0.00 83 1008.2
20240223051018 34 293 2.0 5.0 0.00 0.00 0.00 83 1008.2
20240223050018 34 248 2.0 4.0 0.00 0.00 0.00 83 1008.3
20240223045017 34 248 2.0 5.0 0.00 0.00 0.00 83 1008.4
20240223044020 35 248 2.0 5.0 0.00 0.00 0.00 83 1008.5
20240223043017 35 248 3.0 7.0 0.00 0.00 0.00 83 1008.6
20240223042017 35 248 3.0 7.0 0.00 0.00 0.00 82 1008.6
20240223041018 35 248 2.0 6.0 0.00 0.00 0.00 82 1008.6
20240223040017 35 270 3.0 6.0 0.00 0.00 0.00 81 1008.7
20240223035018 35 270 3.0 7.0 0.00 0.00 0.00 81 1008.7
20240223034017 35 270 2.0 5.0 0.00 0.00 0.00 81 1008.8
20240223033017 35 248 2.0 4.0 0.00 0.00 0.00 80 1008.8
20240223032018 35 293 2.0 6.0 0.00 0.00 0.00 79 1008.8
20240223031017 36 248 2.0 5.0 0.00 0.00 0.00 78 1008.9
20240223030018 36 270 2.0 6.0 0.00 0.00 0.00 77 1008.9
20240223025017 36 270 2.0 4.0 0.00 0.00 0.00 77 1008.8
20240223024017 36 270 3.0 6.0 0.00 0.00 0.00 76 1008.7
20240223023017 37 270 2.0 6.0 0.00 0.00 0.00 75 1008.8
20240223022017 37 293 2.0 5.0 0.00 0.00 0.00 75 1008.7
20240223021018 37 270 3.0 6.0 0.00 0.00 0.00 74 1008.6
20240223020037 38 293 2.0 5.0 0.00 0.00 0.00 74 1008.6
20240223015019 38 293 2.0 7.0 0.00 0.00 0.00 73 1008.6
20240223014017 38 293 3.0 9.0 0.00 0.00 0.00 73 1008.5
20240223013017 39 293 5.0 11.0 0.00 0.00 0.00 73 1008.6
20240223012017 39 293 6.0 10.0 0.00 0.00 0.00 74 1008.5
20240223011017 39 293 5.0 10.0 0.00 0.00 0.00 74 1008.4
20240223010017 40 293 5.0 12.0 0.00 0.00 0.00 74 1008.4
20240223005017 40 293 3.0 9.0 0.00 0.00 0.00 73 1008.3
20240223004017 41 270 2.0 8.0 0.00 0.00 0.00 72 1008.2
20240223003017 41 293 2.0 5.0 0.00 0.00 0.00 71 1008.1
20240223002018 41 293 4.0 10.0 0.00 0.00 0.00 72 1008.0
20240223001017 42 293 2.0 7.0 0.00 0.00 0.00 72 1008.0
20240223000017 42 270 2.0 7.0 0.00 0.00 0.00 72 1008.0
20240222235037 43 293 3.0 6.0 0.00 0.00 0.00 72 1007.9
20240222234017 43 270 4.0 10.0 0.00 0.00 0.00 72 1007.9
20240222233017 44 270 4.0 10.0 0.00 0.00 0.00 71 1007.8
20240222232037 44 248 5.0 12.0 0.00 0.00 0.00 72 1007.8
20240222231037 44 270 5.0 14.0 0.00 0.00 0.00 72 1007.7
20240222230017 45 293 6.0 13.0 0.00 0.00 0.00 71 1007.7
20240222225017 45 293 5.0 12.0 0.00 0.00 0.00 72 1007.6
20240222224017 45 248 5.0 12.0 0.00 0.00 0.00 72 1007.6
20240222223017 45 248 6.0 13.0 0.00 0.00 0.00 71 1007.6
20240222222017 46 248 6.0 12.0 0.00 0.00 0.00 69 1007.5
20240222221017 47 293 5.0 11.0 0.00 0.00 0.00 69 1007.5
20240222220017 47 248 7.0 17.0 0.00 0.00 0.00 67 1007.4
20240222215037 48 248 7.0 13.0 0.00 0.00 0.00 66 1007.2
20240222214017 49 248 6.0 14.0 0.00 0.00 0.00 64 1007.2
20240222213017 51 248 8.0 14.0 0.00 0.00 0.00 60 1007.2
20240222212017 52 293 6.0 15.0 0.00 0.00 0.00 53 1007.1
20240222211017 51 293 6.0 12.0 0.00 0.00 0.00 54 1007.1
20240222210017 51 338 6.0 11.0 0.00 0.00 0.00 54 1007.1
20240222205017 51 315 6.0 14.0 0.00 0.00 0.00 55 1007.3
20240222204017 52 315 6.0 16.0 0.00 0.00 0.00 54 1007.3
20240222203016 51 315 7.0 14.0 0.00 0.00 0.00 55 1007.2
20240222202016 51 315 7.0 13.0 0.00 0.00 0.00 54 1007.4
20240222201017 51 0 8.0 15.0 0.00 0.00 0.00 54 1007.4
20240222200017 51 315 6.0 13.0 0.00 0.00 0.00 54 1007.5
20240222195017 52 338 8.0 14.0 0.00 0.00 0.00 54 1007.5
20240222194017 52 338 6.0 12.0 0.00 0.00 0.00 54 1007.6
20240222193017 51 338 7.0 14.0 0.00 0.00 0.00 54 1007.7
20240222192017 51 315 6.0 12.0 0.00 0.00 0.00 54 1007.7
20240222191018 51 293 6.0 19.0 0.00 0.00 0.00 56 1007.7